Regional Weather Roundup
Issued by NWS

Home | Current Version | Previous Version | Graphics & Text | Print | Product List | Glossary On
Versions: 1 2 3 4 5 6 7 8 9 10 11 12 13 14 15 16 17 18 19 20 21 22 23 24 25 26 27 28 29 30 31 32 33 34 35 36 37 38 39 40 41 42 43 44 45 46 47 48 49 50
000
ASUS43 KOAX 011910
RWRNE

WEATHER ROUNDUP FOR NEBRASKA
NATIONAL WEATHER SERVICE OMAHA NE
200 PM CDT FRI AUG 01 2014

NOTES: SATELLITE DATA IS BEING USED TO AUGMENT CLOUD COVER ABOVE
       12000 FEET.
       "FAIR" INDICATES FEW OR NO CLOUDS BELOW 12,000 FEET WITH NO
       SIGNIFICANT WEATHER AND/OR OBSTRUCTIONS TO VISIBILITY.

  * THESE STATIONS DO NOT REPORT WEATHER SUCH AS RAIN...SNOW OR FOG.

NEZ001>004-019>022-054>056-012000-
NEBRASKA PANHANDLE

CITY           SKY/WX    TMP DP  RH WIND       PRES   REMARKS
SCOTTSBLUFF    SUNNY     87  45  23 VRB3      30.19F
ALLIANCE       SUNNY     88  37  16 E6        30.18F
CHADRON        SUNNY     91  39  16 SE5       30.11F
KIMBALL        SUNNY     81  40  23 SE5       30.25S
SIDNEY         SUNNY     87  38  17 VRB5      30.22F
$$

NEZ057>060-069>072-079>082-012000-
SOUTHWEST NEBRASKA

CITY           SKY/WX    TMP DP  RH WIND       PRES   REMARKS
NORTH PLATTE   SUNNY     87  51  28 SW6       30.13F
IMPERIAL       SUNNY     88  42  20 N7        30.16F
LEXINGTON      SUNNY     85  58  39 CALM      30.14S
MCCOOK         SUNNY     88  51  28 VRB7      30.14S
OGALLALA       SUNNY     87  44  21 SE5       30.16S
$$

NEZ005>010-023>029-035>040-094-012000-
NORTH CENTRAL NEBRASKA

CITY           SKY/WX    TMP DP  RH WIND       PRES   REMARKS
VALENTINE      SUNNY     89  50  26 CALM      30.11F
AINSWORTH      SUNNY     84  54  34 E9        30.13F
BROKEN BOW     SUNNY     85  59  41 VRB5      30.14S
O`NEILL        MOSUNNY   82  56  39 E5        30.14S
ORD            SUNNY     83  58  42 E7        30.12S
THEDFORD       SUNNY     89  52  28 NE3       30.14S
$$

NEZ041-046>049-061>064-073>077-083>087-012000-
SOUTH CENTRAL NEBRASKA

CITY           SKY/WX    TMP DP  RH WIND       PRES   REMARKS
GRAND ISLAND   SUNNY     82  60  47 NE8       30.13S
AURORA         SUNNY     81  61  49 NE9       30.12S
HASTINGS       SUNNY     82  56  40 NE13      30.13R
HEBRON         SUNNY     82  58  43 N10G17    30.09R
HOLDREGE       SUNNY     82  57  42 N7        30.14S
KEARNEY *      SUNNY     82  57  42 N9        30.14R
YORK           SUNNY     79  63  57 N9G17     30.11F
$$

NEZ011>018-030>034-042>045-012000-
NORTHEAST NEBRASKA

CITY           SKY/WX    TMP DP  RH WIND       PRES   REMARKS
NORFOLK        SUNNY     81  58  45 E8        30.12S
ALBION         SUNNY     80  54  40 N3        30.13S
BLAIR          MOSUNNY   79  61  54 NE8       30.10S
COLUMBUS *     SUNNY     81  61  50 E8        30.12S
FREMONT        MOSUNNY   82  62  49 E7        30.11R
TEKAMAH        MOSUNNY   83  59  44 VRB5      30.10S
WAYNE          MOSUNNY   81  62  52 CALM      30.12F
$$

NEZ050>053-065>068-078-088>093-012000-
SOUTHEAST NEBRASKA

CITY           SKY/WX    TMP DP  RH WIND       PRES   REMARKS
LINCOLN        CLOUDY    80  61  52 E7        30.09S
OMAHA EPPLEY   MOSUNNY   83  61  47 E9        30.09F
BEATRICE       CLOUDY    81  64  57 E7        30.07S
FALLS CITY     CLOUDY    81  65  58 E10       30.07R HAZE
NEBRASKA CITY  MOSUNNY   82  61  49 E9        30.09S
PLATTSMOUTH    MOSUNNY   80  59  48 E6        30.10S
$$

NEZ044-045-051>053-067-012000-
OMAHA AREA

CITY           SKY/WX    TMP DP  RH WIND       PRES   REMARKS
OMAHA EPPLEY   MOSUNNY   83  61  47 E9        30.09F
BLAIR          MOSUNNY   79  61  54 NE8       30.10S
FREMONT        MOSUNNY   82  62  49 E7        30.11R
MILLARD        PTSUNNY   80  62  54 SE7       30.09S
OFFUTT AFB     MOSUNNY   80  64  57 NE6       30.09S
PLATTSMOUTH    MOSUNNY   80  59  48 E6        30.10S
WAHOO          FAIR      81  62  51 E9        30.10S
$$


USA.gov is the U.S. government's official web portal to all federal, state and local government web resources and services.